TimePDT,TemperatureF,Dew PointF,Humidity,Sea Level PressureIn,VisibilityMPH,Wind Direction,Wind SpeedMPH,Gust SpeedMPH,PrecipitationIn,Events,Conditions,WindDirDegrees,DateUTC
12:53 AM,60.1,55.0,83,30.07,10.0,NNE,3.5,-,N/A,,Clear,20,2013-06-27 07:53:00
1:53 AM,57.9,55.0,90,30.07,10.0,ENE,3.5,-,N/A,,Clear,60,2013-06-27 08:53:00
2:53 AM,57.9,55.0,90,30.07,10.0,North,5.8,-,N/A,,Clear,360,2013-06-27 09:53:00
3:53 AM,59.0,55.9,90,30.07,10.0,North,5.8,-,N/A,,Mostly Cloudy,10,2013-06-27 10:53:00
4:53 AM,59.0,55.9,90,30.08,10.0,NNE,4.6,-,0.00,Rain,Light Rain,30,2013-06-27 11:53:00
5:53 AM,59.0,55.9,90,30.10,10.0,North,5.8,-,0.00,,Overcast,360,2013-06-27 12:53:00
6:53 AM,60.1,55.9,86,30.10,10.0,North,8.1,-,N/A,,Overcast,10,2013-06-27 13:53:00
7:53 AM,61.0,55.9,83,30.12,10.0,North,9.2,-,N/A,,Overcast,10,2013-06-27 14:53:00
8:53 AM,61.0,55.9,83,30.14,10.0,North,10.4,-,0.00,,Overcast,350,2013-06-27 15:53:00
9:53 AM,62.1,57.9,86,30.14,10.0,North,9.2,-,0.02,Rain,Light Rain,10,2013-06-27 16:53:00
10:53 AM,64.9,57.9,78,30.16,10.0,North,8.1,-,0.00,,Overcast,350,2013-06-27 17:53:00
11:53 AM,69.1,57.9,68,30.16,10.0,North,8.1,-,N/A,,Partly Cloudy,350,2013-06-27 18:53:00
12:53 PM,73.9,55.9,53,30.16,10.0,Calm,Calm,-,N/A,,Partly Cloudy,0,2013-06-27 19:53:00
1:53 PM,75.0,54.0,48,30.14,10.0,Variable,3.5,-,N/A,,Partly Cloudy,0,2013-06-27 20:53:00
2:53 PM,78.1,54.0,43,30.15,10.0,NE,3.5,-,N/A,,Clear,40,2013-06-27 21:53:00
3:53 PM,80.1,54.0,40,30.14,10.0,NNE,9.2,17.3,N/A,,Clear,20,2013-06-27 22:53:00
4:53 PM,79.0,52.0,39,30.14,10.0,NW,6.9,-,N/A,,Clear,320,2013-06-27 23:53:00
5:53 PM,79.0,53.1,40,30.14,10.0,NNE,6.9,-,N/A,,Clear,30,2013-06-28 00:53:00
6:53 PM,78.1,52.0,40,30.14,10.0,North,5.8,-,N/A,,Clear,10,2013-06-28 01:53:00
7:53 PM,77.0,54.0,45,30.14,10.0,North,6.9,-,N/A,,Clear,10,2013-06-28 02:53:00
8:53 PM,73.9,55.9,53,30.15,10.0,North,4.6,-,N/A,,Clear,350,2013-06-28 03:53:00
9:53 PM,70.0,55.0,59,30.17,10.0,NNW,5.8,-,N/A,,Clear,340,2013-06-28 04:53:00
10:53 PM,70.0,54.0,57,30.17,10.0,NNW,4.6,-,N/A,,Clear,340,2013-06-28 05:53:00
11:53 PM,69.1,54.0,58,30.18,10.0,NW,6.9,-,N/A,,Clear,320,2013-06-28 06:53:00